User: anonymous   Login
Location: Fort Wayne
(41.1310°N, 85.1290°W)
Time: 09:10:08
(UTC-04:00)
Language:

Iridium 37 - Orbit

View from above orbital plane
View from above orbital plane
View from above satellite
View from above satellite

Ground track
Ground track

The orbit data is extracted from the following two-line orbital elements,

1 24968U 97056D   15214.47133389  .00000023  00000-0  12302-5 0  9995
2 24968 086.3941 245.0439 0002304 093.1830 266.9630 14.34218118934395
Epoch (UTC): 02 August 2015 11:18:43
Eccentricity: 0.0002304
inclination: 86.3941°
perigee height: 776 km
apogee height: 779 km
right ascension of ascending node: 245.0439°
argument of perigee: 93.1830°
revolutions per day: 14.34218118
mean anomaly at epoch: 266.9630°
orbit number at epoch: 93439

The dashed part of the orbit path shows where the satellite is in the earth's shadow,  

DLR